• In Netherlands
  • List of Countries
  • For 7 days
  • Water Temperature
  • Satellite Maps
  • Weather Map
  • Weather Widgets
  • user-avatar
    Login

    Hourly Weather Belize

    Today, 22 June, Thursday

    Time Temperature Precipitation Wind Pressure Humidity
    00:00 +26°C° 0 mm 5 mps 757 mmHg 95%
    01:00 +26°C° 2.1 mm 5 mps 757 mmHg 96%
    02:00 +26°C° 2.1 mm 5 mps 757 mmHg 97%
    03:00 +26°C° 2.1 mm 5 mps 757 mmHg 98%
    04:00 +26°C° 1 mm 5 mps 757 mmHg 98%
    05:00 +26°C° 1 mm 5 mps 757 mmHg 98%
    06:00 +27°C° 1 mm 5 mps 757 mmHg 98%
    07:00 +27°C° 0.2 mm 5 mps 757 mmHg 97%
    08:00 +28°C° 0.2 mm 5 mps 758 mmHg 95%
    09:00 +29°C° 0.2 mm 5 mps 758 mmHg 93%
    10:00 +30°C° 0 mm 5 mps 758 mmHg 84%
    11:00 +33°C° 0 mm 5 mps 758 mmHg 75%
    12:00 +34°C° 0 mm 5 mps 758 mmHg 65%
    13:00 +34°C° 0 mm 5 mps 757 mmHg 64%
    14:00 +34°C° 0 mm 5 mps 757 mmHg 63%
    15:00 +34°C° 0 mm 5 mps 757 mmHg 63%
    16:00 +33°C° 0 mm 5 mps 757 mmHg 68%
    17:00 +32°C° 0 mm 5 mps 757 mmHg 74%
    18:00 +30°C° 0 mm 5 mps 756 mmHg 80%
    19:00 +29°C° 0 mm 5 mps 757 mmHg 83%
    20:00 +29°C° 0 mm 5 mps 757 mmHg 86%
    21:00 +28°C° 0 mm 5 mps 758 mmHg 89%
    22:00 +28°C° 0.1 mm 5 mps 758 mmHg 91%
    23:00 +28°C° 0.1 mm 5 mps 758 mmHg 93%

    Tomorrow, 23 June, Friday

    Time Temperature Precipitation Wind Pressure Humidity
    00:00 +27°C° 0.1 mm 5 mps 758 mmHg 95%
    01:00 +27°C° 0.7 mm 4 mps 757 mmHg 96%
    02:00 +27°C° 0.7 mm 4 mps 757 mmHg 97%
    03:00 +26°C° 0.7 mm 4 mps 756 mmHg 98%
    04:00 +27°C° 0.1 mm 4 mps 756 mmHg 97%
    05:00 +27°C° 0.1 mm 4 mps 756 mmHg 96%
    06:00 +27°C° 0.1 mm 4 mps 756 mmHg 95%
    07:00 +28°C° 0.1 mm 4 mps 757 mmHg 90%
    08:00 +30°C° 0.1 mm 4 mps 757 mmHg 85%
    09:00 +32°C° 0.1 mm 4 mps 757 mmHg 81%
    10:00 +32°C° 0.5 mm 5 mps 757 mmHg 82%
    11:00 +33°C° 0.5 mm 5 mps 757 mmHg 83%
    12:00 +33°C° 0.5 mm 5 mps 757 mmHg 84%
    13:00 +34°C° 0.2 mm 5 mps 756 mmHg 77%
    14:00 +34°C° 0.2 mm 4 mps 756 mmHg 70%
    15:00 +35°C° 0.2 mm 4 mps 755 mmHg 63%
    16:00 +33°C° 0 mm 4 mps 756 mmHg 69%
    17:00 +32°C° 0 mm 4 mps 756 mmHg 75%
    18:00 +30°C° 0 mm 4 mps 756 mmHg 81%
    19:00 +29°C° 0 mm 4 mps 757 mmHg 85%
    20:00 +29°C° 0 mm 5 mps 757 mmHg 88%
    21:00 +28°C° 0 mm 5 mps 758 mmHg 91%
    22:00 +28°C° 0.8 mm 5 mps 758 mmHg 92%
    23:00 +28°C° 0.8 mm 5 mps 758 mmHg 92%

    Day after tomorrow, 24 June, Saturday

    Time Temperature Precipitation Wind Pressure Humidity
    00:00 +28°C° 0.8 mm 5 mps 758 mmHg 92%
    01:00 +28°C° 0.9 mm 5 mps 757 mmHg 94%
    02:00 +27°C° 0.9 mm 5 mps 757 mmHg 96%
    03:00 +27°C° 0.9 mm 5 mps 757 mmHg 98%
    04:00 +27°C° 1.2 mm 5 mps 757 mmHg 98%
    05:00 +27°C° 1.2 mm 5 mps 757 mmHg 98%
    06:00 +27°C° 1.2 mm 5 mps 757 mmHg 98%
    07:00 +28°C° 1 mm 5 mps 758 mmHg 93%
    08:00 +30°C° 1 mm 5 mps 758 mmHg 89%
    09:00 +32°C° 1 mm 5 mps 759 mmHg 84%
    10:00 +33°C° 0.7 mm 6 mps 759 mmHg 77%
    11:00 +34°C° 0.7 mm 6 mps 759 mmHg 69%
    12:00 +35°C° 0.7 mm 6 mps 759 mmHg 62%
    13:00 +35°C° 0.1 mm 6 mps 758 mmHg 61%
    14:00 +35°C° 0.1 mm 6 mps 758 mmHg 61%
    15:00 +35°C° 0.1 mm 5 mps 757 mmHg 61%
    16:00 +34°C° 0 mm 5 mps 757 mmHg 68%
    17:00 +33°C° 0 mm 5 mps 757 mmHg 74%
    18:00 +30°C° 0 mm 5 mps 758 mmHg 81%
    19:00 +30°C° 0 mm 5 mps 758 mmHg 83%
    20:00 +29°C° 0 mm 5 mps 759 mmHg 86%
    21:00 +28°C° 0 mm 5 mps 759 mmHg 89%
    22:00 +28°C° 0 mm 5 mps 759 mmHg 89%
    23:00 +28°C° 0 mm 5 mps 759 mmHg 89%

    25 June, Sunday

    Time Temperature Precipitation Wind Pressure Humidity
    00:00 +28°C° 0 mm 5 mps 759 mmHg 90%
    01:00 +28°C° 0 mm 5 mps 759 mmHg 91%
    02:00 +28°C° 0 mm 5 mps 759 mmHg 92%
    03:00 +27°C° 0 mm 5 mps 759 mmHg 93%
    04:00 +27°C° 0 mm 4 mps 759 mmHg 92%
    05:00 +28°C° 0 mm 4 mps 759 mmHg 91%
    06:00 +28°C° 0 mm 4 mps 759 mmHg 91%
    07:00 +29°C° 0.1 mm 4 mps 760 mmHg 85%
    08:00 +30°C° 0.1 mm 4 mps 760 mmHg 79%
    09:00 +32°C° 0.1 mm 4 mps 761 mmHg 73%
    10:00 +33°C° 0.1 mm 4 mps 761 mmHg 68%
    11:00 +34°C° 0.1 mm 4 mps 760 mmHg 62%
    12:00 +35°C° 0.1 mm 4 mps 760 mmHg 57%
    13:00 +35°C° 0.1 mm 5 mps 760 mmHg 57%
    14:00 +35°C° 0.1 mm 5 mps 759 mmHg 57%
    15:00 +35°C° 0.1 mm 5 mps 759 mmHg 57%
    16:00 +34°C° 0.1 mm 5 mps 759 mmHg 63%
    17:00 +32°C° 0.1 mm 5 mps 759 mmHg 69%
    18:00 +30°C° 0.1 mm 5 mps 759 mmHg 76%
    19:00 +29°C° 0 mm 5 mps 760 mmHg 81%
    20:00 +28°C° 0 mm 5 mps 760 mmHg 86%
    21:00 +27°C° 0 mm 5 mps 761 mmHg 90%
    22:00 +27°C° 0 mm 5 mps 761 mmHg 92%
    23:00 +26°C° 0 mm 4 mps 760 mmHg 93%

    26 June, Monday

    Time Temperature Precipitation Wind Pressure Humidity
    00:00 +26°C° 0 mm 4 mps 760 mmHg 95%
    01:00 +26°C° 0.2 mm 4 mps 760 mmHg 94%
    02:00 +27°C° 0.2 mm 4 mps 759 mmHg 93%
    03:00 +27°C° 0.2 mm 3 mps 759 mmHg 92%
    04:00 +27°C° 1.2 mm 3 mps 759 mmHg 92%
    05:00 +27°C° 1.2 mm 3 mps 759 mmHg 93%
    06:00 +27°C° 1.2 mm 3 mps 759 mmHg 93%
    07:00 +28°C° 1.3 mm 4 mps 760 mmHg 87%
    08:00 +29°C° 1.3 mm 4 mps 760 mmHg 81%
    09:00 +32°C° 1.3 mm 4 mps 760 mmHg 75%
    10:00 +33°C° 0.8 mm 4 mps 760 mmHg 67%
    11:00 +34°C° 0.8 mm 3 mps 760 mmHg 59%
    12:00 +36°C° 0.8 mm 3 mps 760 mmHg 51%
    13:00 +35°C° 0.2 mm 4 mps 759 mmHg 52%
    14:00 +35°C° 0.2 mm 4 mps 759 mmHg 53%
    15:00 +35°C° 0.2 mm 4 mps 758 mmHg 54%
    16:00 +34°C° 0 mm 4 mps 758 mmHg 61%
    17:00 +32°C° 0 mm 4 mps 758 mmHg 67%
    18:00 +30°C° 0 mm 4 mps 758 mmHg 74%
    19:00 +29°C° 0 mm 4 mps 759 mmHg 80%
    20:00 +28°C° 0 mm 4 mps 759 mmHg 87%
    21:00 +27°C° 0 mm 5 mps 760 mmHg 93%
    22:00 +27°C° 0.2 mm 4 mps 760 mmHg 94%
    23:00 +26°C° 0.2 mm 4 mps 760 mmHg 95%

    27 June, Tuesday

    Time Temperature Precipitation Wind Pressure Humidity
    00:00 +26°C° 0.2 mm 4 mps 760 mmHg 96%
    01:00 +26°C° 0.7 mm 4 mps 759 mmHg 96%
    02:00 +26°C° 0.7 mm 4 mps 759 mmHg 97%
    03:00 +26°C° 0.7 mm 4 mps 758 mmHg 97%
    04:00 +26°C° 0.6 mm 4 mps 759 mmHg 96%
    05:00 +26°C° 0.6 mm 3 mps 759 mmHg 95%
    06:00 +26°C° 0.6 mm 3 mps 759 mmHg 93%
    07:00 +28°C° 1.4 mm 3 mps 759 mmHg 84%
    08:00 +30°C° 1.4 mm 3 mps 759 mmHg 75%
    09:00 +33°C° 1.4 mm 3 mps 759 mmHg 66%
    10:00 +34°C° 1.4 mm 4 mps 759 mmHg 62%
    11:00 +34°C° 1.4 mm 4 mps 759 mmHg 58%
    12:00 +35°C° 1.4 mm 4 mps 759 mmHg 54%
    13:00 +35°C° 0.5 mm 4 mps 758 mmHg 53%
    14:00 +35°C° 0.5 mm 4 mps 758 mmHg 53%
    15:00 +35°C° 0.5 mm 4 mps 757 mmHg 53%
    16:00 +33°C° 0.5 mm 4 mps 758 mmHg 60%
    17:00 +32°C° 0.5 mm 4 mps 758 mmHg 66%
    18:00 +30°C° 0.5 mm 4 mps 758 mmHg 73%
    19:00 +29°C° 0.1 mm 5 mps 758 mmHg 79%
    20:00 +28°C° 0.1 mm 5 mps 759 mmHg 86%
    21:00 +27°C° 0.1 mm 5 mps 759 mmHg 92%
    22:00 +27°C° 0.5 mm 5 mps 759 mmHg 93%
    23:00 +27°C° 0.5 mm 4 mps 759 mmHg 94%
    Show more